THORAD DELTA 1 DEB, 8555

Orbit data source: Space-Track

THORAD DELTA 1 DEB, 8555 is space debris in SSO originally from a launch on Fri, 15 Nov 1974 UTC launched from the Air Force Western Test Range (AFWTR). Debris objects in space refer to the collection of defunct objects orbiting the Earth. Examples of debris include non-operational satellites, rocket bodies, and fragments generated from explosions, collisions, or faulty payload assembly.

Loading next visibility...
Identifier
8555, 1974-089CS
Orbit
SSO
Country
Flag of USUS
Related business
Manufacturer
Unknown
Mission
Spacecraft
Bus & Motor
Unknown
Mass
Unknown
Launch date (UTC)
1974-11-15 (51 years ago)
Launch vehicle
Unknown
Launch site
Air Force Western Test Range (AFWTR)
Object type
Payload
Rocket body
Debris
Shape & HBR
Unknown shape, 0.1 m
Radar Cross Section
Small (<0.1 m²)

Expand to show TLE details & history
Last TLE update: 8 hours ago

TLE from 8 hours ago
0 THORAD DELTA 1 DEB
1 08555U 74089CS  25302.84846309  .00000898  00000-0  56751-2 0  9996
2 08555 101.4026  62.3721 0065115 130.8205 354.8477 12.55963028324500
Epoch: 2025-10-29T20:21Z
TLE epoch observation values (Epoch: 2025-10-29T20:21:47.210Z)
Latitude
52.94425°
Longitude
-86.07719°
Altitude
1,397.383 km
Speed
7.189 km/s
True Right ascension
17h 11m 08s
True Declination
52° 47' 32"
Sunlit
Object was in daylight at epoch
Visualization orbit readout
Latitude
Unknown
Longitude
Unknown
Altitude
Unknown
Speed
Unknown
Apparent Right ascension
Unknown
Apparent Declination
Unknown
Sunlit
N/A
Visualization observer readout
Local Sidereal Time
00:18:14
Azimuth
Unknown
Elevation
Unknown
Doppler factor
Unknown
Orbital elements
Apogee altitude
1,488.06 km
Perigee altitude
1,386.281 km
Semi-major axis
7,815.308 km
Eccentricity
0.00651
Inclination
101.4026°
RAAN
62.3721°
Arg. of periapsis
130.8205°
True anomaly
354.78014°
Mean anomaly
354.8477°
Eccentric anomaly
354.81398°
Mean motion
3.14141 °/min
Orbital period
114.6 mins
BSTAR
0.0056751
Loading maneuver chart data...
Computing Atmospheric mass density...
Loading historical data...
Loading historical data...
Loading historical data...
Loading historical data...
Loading historical data...
Loading historical data...
Loading historical data...

Documentation

Showing up to 5 results
|